This is the latest recevied weather packets stored in our database for station/object KY0TEQ-13. If no packets are shown the sender has not sent any weather packets the latest 10 day(s).
| Time | Temp. | Humidity | Pressure | Rain* | Wind** | Luminosity | Snow |
|---|---|---|---|---|---|---|---|
| 1788259732 | 10.56° C | 80% | 1310.5 hPa | 0 mm | - | 0 W/m² | - |
| 1788259427 | 11.11° C | 80% | 1310.2 hPa | 0 mm | - | 0 W/m² | - |
| 1788259122 | 10.56° C | 80% | 1310.1 hPa | 0 mm | - | 0 W/m² | - |
| 1788258816 | 11.11° C | 80% | 1310.4 hPa | 0 mm | - | 0 W/m² | - |
| 1788258512 | 11.11° C | 79% | 1310 hPa | 0 mm | - | 0 W/m² | - |
| 1788258211 | 11.67° C | 79% | 1310.1 hPa | 0 mm | - | 0 W/m² | - |
| 1788257907 | 11.67° C | 78% | 1310.4 hPa | 0 mm | - | 0 W/m² | - |
| 1788257607 | 11.67° C | 77% | 1310.1 hPa | 0 mm | - | 0 W/m² | - |
| 1788257306 | 12.22° C | 75% | 1310.1 hPa | 0 mm | - | 0 W/m² | - |
| 1788257001 | 11.67° C | 77% | 1310.2 hPa | 0 mm | - | 0 W/m² | - |
| 1788256700 | 11.67° C | 79% | 1310.4 hPa | 0 mm | - | 0 W/m² | - |
| 1788256398 | 11.11° C | 80% | 1310.5 hPa | 0 mm | - | 0 W/m² | - |
| 1788256092 | 11.67° C | 79% | 1310.4 hPa | 0 mm | - | 0 W/m² | - |
| 1788255787 | 11.67° C | 79% | 1310.1 hPa | 0 mm | - | 0 W/m² | - |
| 1788255482 | 11.67° C | 79% | 1310.4 hPa | 0 mm | - | 0 W/m² | - |
| 1788255181 | 11.67° C | 78% | 1310.2 hPa | 0 mm | - | 0 W/m² | - |
| 1788254877 | 11.67° C | 78% | 1310.2 hPa | 0 mm | - | 0 W/m² | - |
| 1788254573 | 11.67° C | 78% | 1310.2 hPa | 0 mm | - | 0 W/m² | - |
| 1788254269 | 11.67° C | 77% | 1310.4 hPa | 0 mm | - | 0 W/m² | - |
| 1788253964 | 11.67° C | 77% | 1310.2 hPa | 0 mm | - | 0 W/m² | - |
| 1788253664 | 11.67° C | 79% | 1310.4 hPa | 0 mm | - | 0 W/m² | - |
| 1788253359 | 11.67° C | 78% | 1310.6 hPa | 0 mm | - | 0 W/m² | - |
| 1788253055 | 11.67° C | 77% | 1310.6 hPa | 0 mm | - | 0 W/m² | - |
| 1788252750 | 11.67° C | 79% | 1310.6 hPa | 0 mm | - | 0 W/m² | - |
| 1788252446 | 11.67° C | 78% | 1310.7 hPa | 0 mm | - | 0 W/m² | - |
* Rain latest hour (hover to see other rain measurements)
** Current wind speed in m/s (hover to see current wind gust speed)